Find Okean-O1

NORAD ID: 20510 Int'l Des: 1990-018 Owner: GMS/YUZH Country: SU operational
LEOCIRCULARPOLAR

Live Position

Loading 3D Globe...

About Okean-O1

Description loading...

Upcoming Passes

Passes for default location (London). Set your location on the main map for personalized predictions.

Altitude History

Loading altitude history...

Two-Line Element Set

1 20510U 90018A 26110.27049936 .00003772 00000-0 19478-3 0 9997
2 20510 82.4960 290.7736 0007171 140.6848 31.9957 15.16003871945284
Epoch: Apr 20, 2026 • Age: 19 hours

Current Status

Altitude 523.1 km
Velocity 7.61 km/s
Sub-Earth Point 58.37°N, 130.52°W
Launch Date Feb 28, 1990
Age 36.1 years
Type other

Technical Details

Classification Payload
Mass 1906.00 kg
Dry Mass 1906.00 kg
Total Mass 1906.00 kg
Length 5.00 m
Diameter 2.40 m
Span 21.50 m
Shape Cyl + 2 Pan + Ant
Manufacturer YUZH
Bus Type Okean
Phase Status In Orbit
Owner/State GMS/YUZH/SU

Most Searched